Weather History for KTRI - August, 2014

Change the Weather History Date:

Saturday, August 23, 2014

  Actual Average Record
Temperature  
Mean Temperature 79 °F 74 °F  
Max Temperature 89 °F 85 °F 99 °F (2007)
Min Temperature 68 °F 62 °F 49 °F (1997)
Degree Days  
Heating Degree Days 0 0  
Month to date heating degree days 0 0  
Since 1 June heating degree days 0 11  
Since 1 July heating degree days 0 0  
Cooling Degree Days 14 9  
Month to date cooling degree days 189 209  
Year to date cooling degree days 877 787  
Since 1 June cooling degree days 743 714  
Growing Degree Days 28 (Base 50)    
Moisture  
Dew Point 68 °F    
Average Humidity 76    
Maximum Humidity 97    
Minimum Humidity 55    
Precipitation  
Precipitation 0.04 in 0.10 in 1.49 in (1970)
Month to date precipitation 3.50 2.68  
Year to date precipitation 24.33 28.66  
Snow  
Snow 0.00 in 0.00 in - ()
Month to date snowfall 0.0 0.0  
Since 1 June snowfall 0.0 0.0  
Since 1 July snowfall 0.0 0.0  
Snow Depth 0.00 in    
Sea Level Pressure  
Sea Level Pressure 30.00 in    
Wind  
Wind Speed 2 mph (NW)    
Max Wind Speed 10 mph    
Max Gust Speed 14 mph    
Visibility 8 miles    
Events Rain , Thunderstorm    
T = Trace of Precipitation, MM = Missing Value Source: NWS Daily Summary

Daily Weather History Graph

Daily Weather History Graph

Search for Another Location

Airport or City:

Trip Planner

Search our weather history database for the weather conditions in past years. The results will help you decide how hot, cold, wet, or windy it might be!

Date:

Astronomy

Aug. 23, 2014 Rise Set
Actual Time 6:53 AM EDT 8:10 PM EDT
Civil Twilight 6:26 AM EDT 8:36 PM EDT
Nautical Twilight 5:54 AM EDT 9:08 PM EDT
Astronomical Twilight 5:21 AM EDT 9:42 PM EDT
Moon 5:09 AM EDT (8/23) 6:53 PM EDT (8/23)
Length of Visible Light 14h 10m
Length of Day
13h 16m
Waning Crescent, 3% of the Moon is Illuminated
Aug 23
Waning Crescent
Aug 25
New
Sep 2
First Quarter
Sep 8
Full
Sep 15
Last Quarter

Hourly Weather History & Observations

Time (EDT) Temp. Heat Index Dew Point Humidity Pressure Visibility Wind Dir Wind Speed Gust Speed Precip Events Conditions
12:10 AM 72.0 °F - 69.1 °F 91% 30.10 in 1.8 mi NNW 12.7 mph 18.4 mph 0.10 in Rain , Thunderstorm Light Thunderstorms and Rain
12:24 AM 71.1 °F - 68.0 °F 90% 30.10 in 2.0 mi WSW 10.4 mph - 0.28 in Rain , Thunderstorm Heavy Thunderstorms and Rain
12:35 AM 71.1 °F - 66.9 °F 87% 30.09 in 6.0 mi West 3.5 mph - 0.31 in Rain , Thunderstorm Light Thunderstorms and Rain
12:51 AM 71.6 °F - 66.2 °F 83% 30.08 in 4.0 mi Calm Calm - N/A Rain Rain
12:53 AM 71.1 °F - 66.9 °F 87% 30.00 in 4.0 mi WSW 3.5 mph - 0.34 in Rain Rain
1:53 AM 70.0 °F - 66.9 °F 90% 29.98 in 10.0 mi Calm Calm - 0.03 in   Partly Cloudy
2:06 AM 70.0 °F - 66.9 °F 90% 30.06 in 10.0 mi Calm Calm - N/A   Scattered Clouds
2:53 AM 70.0 °F - 66.9 °F 90% 29.96 in 10.0 mi Calm Calm - N/A   Partly Cloudy
3:53 AM 69.1 °F - 66.9 °F 93% 29.96 in 10.0 mi Calm Calm - N/A   Mostly Cloudy
5:25 AM 68.0 °F - 66.0 °F 93% 30.03 in 1.5 mi Calm Calm - N/A   Scattered Clouds
5:32 AM 68.0 °F - 66.0 °F 93% 30.03 in 2.0 mi Calm Calm - N/A   Mostly Cloudy
5:37 AM 68.0 °F - 66.0 °F 93% 30.03 in 1.8 mi Calm Calm - N/A   Mostly Cloudy
5:40 AM 69.1 °F - 66.0 °F 90% 30.03 in 3.0 mi Calm Calm - N/A   Mostly Cloudy
5:45 AM 69.1 °F - 66.0 °F 90% 30.03 in 8.0 mi NNW 8.1 mph - N/A   Overcast
5:53 AM 69.1 °F - 66.9 °F 93% 29.96 in 10.0 mi Variable 3.5 mph - N/A   Overcast
7:53 AM 70.0 °F - 66.9 °F 90% 29.98 in 6.0 mi Calm Calm - 0.02 in   Mostly Cloudy
8:05 AM 70.0 °F - 66.9 °F 90% 30.06 in 6.0 mi ENE 3.5 mph - N/A   Mostly Cloudy
8:23 AM 71.1 °F - 68.0 °F 90% 30.06 in 5.0 mi Calm Calm - N/A   Mostly Cloudy
8:46 AM 71.1 °F - 68.0 °F 90% 30.06 in 6.0 mi Calm Calm - N/A   Mostly Cloudy
8:53 AM 72.0 °F - 68.0 °F 87% 29.99 in 6.0 mi Calm Calm - N/A   Mostly Cloudy
9:53 AM 73.9 °F - 68.0 °F 82% 29.99 in 10.0 mi Calm Calm - N/A   Mostly Cloudy
10:53 AM 78.1 °F - 70.0 °F 76% 29.99 in 10.0 mi Calm Calm - N/A   Scattered Clouds
11:53 AM 81.0 °F 84.1 °F 69.1 °F 67% 29.99 in 10.0 mi Calm Calm - N/A   Overcast
12:01 PM 81.0 °F 84.1 °F 69.1 °F 67% 30.06 in 10.0 mi Calm Calm - N/A   Mostly Cloudy
12:53 PM 84.0 °F 87.8 °F 69.1 °F 61% 29.98 in 10.0 mi North 4.6 mph - N/A   Mostly Cloudy
1:26 PM 84.9 °F 89.4 °F 70.0 °F 61% 30.05 in 10.0 mi SW 4.6 mph - N/A   Mostly Cloudy
1:53 PM 84.9 °F 88.8 °F 69.1 °F 59% 29.96 in 10.0 mi Variable 4.6 mph - N/A   Partly Cloudy
2:53 PM 86.0 °F 90.7 °F 70.0 °F 59% 29.95 in 10.0 mi NNW 9.2 mph - N/A   Scattered Clouds
3:53 PM 87.1 °F 91.3 °F 69.1 °F 55% 29.93 in 10.0 mi North 4.6 mph - N/A   Scattered Clouds
4:53 PM 87.1 °F 91.3 °F 69.1 °F 55% 29.91 in 10.0 mi Variable 5.8 mph - N/A   Mostly Cloudy
5:53 PM 82.0 °F 86.3 °F 71.1 °F 69% 29.92 in 10.0 mi NNW 4.6 mph - 0.00 in   Mostly Cloudy
6:53 PM 84.0 °F 89.0 °F 71.1 °F 65% 29.89 in 10.0 mi Calm Calm - N/A   Scattered Clouds
7:53 PM 80.1 °F 83.6 °F 71.1 °F 74% 29.90 in 10.0 mi SSW 3.5 mph - N/A   Mostly Cloudy
8:53 PM 77.0 °F - 71.1 °F 82% 29.90 in 10.0 mi Calm Calm - N/A   Mostly Cloudy
9:53 PM 73.0 °F - 70.0 °F 90% 29.93 in 10.0 mi Calm Calm - N/A   Scattered Clouds
10:53 PM 72.0 °F - 69.1 °F 91% 29.95 in 7.0 mi Calm Calm - N/A   Scattered Clouds
11:17 PM 72.0 °F - 69.1 °F 91% 30.03 in 9.0 mi Calm Calm - N/A   Overcast
11:53 PM 72.0 °F - 69.1 °F 91% 29.96 in 10.0 mi Calm Calm - N/A   Mostly Cloudy